User: anonymous   Login
Location: Antichan
(42.9728°N, 0.6667°E)
Time: 11:42:26
(UTC+00:00)
Language:

ALOS 2 - Orbit

View from above orbital plane
View from above orbital plane
View from above satellite
View from above satellite

Ground track
Ground track

The orbit data is extracted from the following two-line orbital elements,

1 39766U 14029A   20297.13432680  .00000046  00000-0  12980-4 0  9998
2 39766  97.9232  31.9053 0001399  87.9439 272.1907 14.79472770346579
Epoch (UTC): 23 October 2020 03:13:25
Eccentricity: 0.0001399
inclination: 97.9232°
perigee height: 630 km
apogee height: 632 km
right ascension of ascending node: 31.9053°
argument of perigee: 87.9439°
revolutions per day: 14.79472770
mean anomaly at epoch: 272.1907°
orbit number at epoch: 34657

The dashed part of the orbit path shows where the satellite is in the earth's shadow,  

DLR